www.pogodaiklimat.ru

Погода и климат >> Архив погоды >> Индонезия >> Танджунгкаранг


ПОГОДА в Танджунгкаранге

  • Прогноз погоды в Танджунгкаранге
  • Монитор погоды в Танджунгкаранге

АРХИВ ПОГОДЫ в Танджунгкаранге

Время (UTC), дата Ветер
(напр.,м/с)
 
Видим.   Явления Облачность Т
(С)
Тd
(С)
f
(%)
Тe
(С)
Тes
(С)
Комфортность P
(гПа)
Po
(гПа)
Тmin
(С)
Tmax
(С)
R
(мм)
R24
(мм)
S
(см)
09 15.08 ЮВ 5 8000 м 5/1 <50 м
[Cu med, cong As op Ci fib]
+32.4 +21.3 52 +40 +42 очень
душно
1010.1 999.8
12 15.08 В 4 8000 м 5/3 450 м
[Sc As op Ci fib]
+28.4 +21.4 66 +36 +36 очень
душно
1011.7 1001.4 +33.3
15 15.08 В 2 8000 м 5/3 450 м
[Sc As op Ci fib]
+26.1 +22.0 78 +34 +34 очень
душно
1013.8 1003.5
18 15.08 штиль 0 8000 м 4/1 450 м
[Sc As op Ci fib]
+25.3 +22.2 83 +33 +33 очень
душно
1012.3 1002.0
21 15.08 штиль 0 8000 м 4/1 450 м
[Sc As op Ci fib]
+23.2 +20.9 87 +31 +31 очень
душно
1011.6 1001.2
00 16.08 ЮЗ 1 2000 м дымка 6/4 360 м
[Sc As op Ci fib]
+22.7 +20.6 88 +30 +30 очень
душно
1013.0 1002.6 +22.9
03 16.08 ЮВ 1 6000 м 9/4 <50 м
[Cu med, cong As op Ci fib]
+28.2 +22.2 70 +37 +43 очень
душно
1014.2 1003.8
06 16.08 ЮВ 2 10 км 8/4 <50 м
[Cu med, cong As op Ci fib]
+32.6 +21.5 52 +41 +48 опасность
перегрева
1011.8 1001.4
09 16.08 ЮВ 6 8000 м 5/3 <50 м
[Cu med, cong Ci fib]
+32.5 +22.6 56 +42 +43 опасность
перегрева
1009.7 999.3
12 16.08 В 4 6000 м 4/0
[Ci fib]
+27.0 +21.1 70 +34 +34 очень
душно
1011.3 1000.9 +33.8
15 16.08 штиль 0 5000 м мгла 4/0
[Ci fib]
+26.6 +22.4 78 +35 +35 очень
душно
1013.9 1003.5
18 16.08 С 1 4000 м мгла 4/0
[Ci fib]
+24.7 +21.6 83 +32 +32 очень
душно
1013.5 1003.1
21 16.08 С 1 4000 м мгла 4/0
[Ci fib]
+22.9 +20.9 89 +30 +30 очень
душно
1012.6 1002.2
00 17.08 штиль 0 3000 м мгла 9/4 450 м
[Sc As op Ci fib]
+22.7 +20.4 87 +29 +30 очень
душно
1013.8 1003.5 +22.3
03 17.08 Ю 2 10 км 5/0
[Ci fib]
+29.1 +20.3 59 +36 +49 очень
душно
1014.6 1004.2
06 17.08 Ю 3 10 км 6/3 <50 м
[Cu med, cong Ci fib]
+32.3 +21.2 52 +40 +51 опасность
солнечного
удара
1011.8 1001.4
09 17.08 ЮВ 5 10 км 6/3 <50 м
[Cu med, cong Ci fib]
+31.9 +21.7 55 +40 +42 очень
душно
1010.1 999.7
12 17.08 ЮВ 3 7000 м 8/4 <50 м
[Cu med, cong As op Ci fib]
+28.2 +21.0 65 +35 +35 очень
душно
1011.3 1000.9 +34.2
15 17.08 ЮВ 3 8000 м 5/1 480 м
[Sc As op Ci fib]
+26.5 +20.8 71 +33 +33 очень
душно
1013.1 1002.7
18 17.08 штиль 0 6000 м 9/5 450 м
[Sc As op Ci fib]
+24.6 +20.9 80 +31 +31 очень
душно
1012.4 1002.0
21 17.08 штиль 0 6000 м 9/5 450 м
[Sc As op Ci fib]
+23.2 +20.6 85 +31 +31 очень
душно
1011.8 1001.4
00 18.08 ЮЗ 2 4000 м мгла 4/1 <50 м
[Cu med, cong Ci fib]
+23.2 +20.7 86 +31 +32 очень
душно
1013.1 1002.8 +22.7
03 18.08 В 5 10 км 6/4 <50 м
[Cu med, cong Ci fib]
+29.4 +20.8 60 +37 +41 очень
душно
1014.0 1003.6
06 18.08 В 4 10 км 5/3 <50 м
[Cu med, cong As op Ci fib]
+33.6 +18.5 41 +38 +46 очень
душно
1011.3 1001.0
09 18.08 В 5 10 км 5/3 <50 м
[Cu med, cong As op Ci fib]
+32.8 +18.6 43 +38 +39 очень
душно
1010.2 999.9
12 18.08 В 2 10 км 4/1 480 м
[Sc As op Ci fib]
+27.8 +19.6 61 +34 +34 очень
душно
1012.1 1001.7 +34.2
15 18.08 В 3 4000 м дымка 4/0
[Ci fib]
+25.3 +20.5 75 +31 +31 очень
душно
1014.3 1003.9
18 18.08 Ю 2 6000 м 4/0
[Ci fib]
+23.5 +19.8 80 +29 +29 душно 1013.5 1003.1
21 18.08 штиль 0 6000 м 4/0
[Ci fib]
+21.4 +18.8 85 +26 +26 душно 1013.1 1002.7
00 19.08 штиль 0 4000 м мгла 3/0
[Ci fib]
+21.0 +18.4 85 +25 +27 комфорт 1014.0 1003.6 +20.6
03 19.08 В 3 9000 м 5/4 <50 м
[Cu med, cong As op Ci fib]
+28.2 +20.2 62 +35 +42 очень
душно
1014.2 1003.8
06 19.08 В 3 10 км 6/3 <50 м
[Cu med, cong As op Ci fib]
+32.4 +18.6 44 +37 +46 очень
душно
1011.9 1001.6
09 19.08 ЮВ 3 10 км 5/3 <50 м
[Cu med, cong As op Ci fib]
+32.0 +18.9 46 +37 +40 очень
душно
1009.8 999.5
12 19.08 ЮВ 3 10 км 4/0
[Ci fib]
+27.8 +20.4 64 +34 +34 очень
душно
1012.0 1001.7 +34.2
15 19.08 штиль 0 10 км 4/0
[Ci fib]
+25.4 +19.1 68 +30 +30 душно 1013.1 1002.8
18 19.08 штиль 0 10 км 4/0
[Ci fib]
+23.3 +19.2 78 +30 +30 очень
душно
1012.1 1001.7
21 19.08 штиль 0 7000 м 4/0
[Ci fib]
+22.2 +19.2 83 +28 +28 душно 1011.6 1001.3
00 20.08 штиль 0 5000 м мгла 6/0
[Ci fib]
+22.2 +19.6 85 +28 +29 душно 1012.4 1002.1 +21.0
03 20.08 ЮВ 4 10 км 4/3 <50 м
[Cu med, cong Ac trans Ci fib]
+29.5 +19.8 56 +36 +43 очень
душно
1012.9 1002.5
06 20.08 В 6 8000 м 6/4 <50 м
[Cu med, cong As op Ci fib]
+32.7 +19.2 45 +38 +42 очень
душно
1010.1 999.7
09 20.08 В 6 9000 м 8/5 <50 м
[Cu Sc As op Ci fib]
+31.4 +21.0 54 +39 +39 очень
душно
1008.8 998.4
12 20.08 В 4 10 км 4/1 450 м
[Sc Ci fib]
+27.2 +20.3 66 +34 +34 очень
душно
1010.6 1000.3 +33.4
15 20.08 ЮВ 2 10 км 4/1 450 м
[Sc Ci fib]
+25.4 +20.6 75 +32 +32 очень
душно
1011.7 1001.4
18 20.08 ЮЗ 2 10 км 4/1 450 м
[Sc Ci fib]
+23.4 +20.5 84 +31 +31 очень
душно
1010.6 1000.3
21 20.08 Ю 2 10 км 4/1 450 м
[Sc Ci fib]
+22.4 +20.3 88 +29 +29 очень
душно
1010.6 1000.1
00 21.08 ЮЗ 2 2000 м дымка 5/3 <50 м
[Cu med, cong As op Ci fib]
+22.1 +20.2 89 +28 +29 душно 1011.7 1001.3 +22.0
03 21.08 В 5 10 км 6/5 <50 м
[Cu med, cong As op Ci fib]
+29.7 +20.8 59 +37 +41 очень
душно
1012.7 1002.2
06 21.08 В 6 10 км 6/4 <50 м
[Cu med, cong Ci fib]
+33.7 +19.0 42 +39 +43 очень
душно
1010.3 1000.0
09 21.08 СВ 5 10 км 6/4 <50 м
[Cu med, cong Ci fib]
+33.1 +18.8 43 +38 +39 очень
душно
1008.8 998.5
12 21.08 В 4 10 км 6/1 450 м
[Sc As op Ci fib]
+28.5 +21.0 64 +36 +36 очень
душно
1011.3 1000.9 +33.8
15 21.08 ЮВ 3 8000 м 3/0
[Ci fib]
+26.4 +21.6 75 +34 +34 очень
душно
1013.0 1002.6
18 21.08 Ю 1 7000 м 3/0
[Ci fib]
+25.7 +21.8 79 +33 +33 очень
душно
1012.8 1002.4
21 21.08 Ю 1 6000 м 4/0
[Ci fib]
+24.0 +21.5 86 +31 +31 очень
душно
1012.8 1002.4
00 22.08 ЮЗ 1 3000 м мгла 3/0
[Ci fib]
+23.1 +21.2 89 +31 +32 очень
душно
1014.3 1003.9 +22.1
03 22.08 В 3 10 км 8/4 <50 м
[Cu med, cong As op Ci fib]
+29.2 +22.2 66 +38 +43 очень
душно
1014.2 1003.9
06 22.08 В 3 10 км 9/5 <50 м
[Cu med, cong As op Ci fib]
+31.3 +21.2 55 +39 +44 очень
душно
1011.6 1001.2

 

Местоположение метеостанции Танджунгкаранг (Индонезия): широта -5.10 долгота 105.18 высота над уровнем моря 96 м.

В архиве по умолчанию представлена погода в Танджунгкаранге за последнюю неделю. Архивные данные за месяц целиком и за предыдущие месяцы, начиная с января 2011 года, Вы можете получить, выбрав интересующий диапазон дат из раскрывающегося списка и нажав кнопку "Ввод!".


*Определитесь, кто Вы:
робот инопланетянин человек

Внимание! Время в таблицах - всемирное. Для получения местного времени необходимо прибавить поправку, которая равна 7 ч.

Смотрите также архив погоды в соседних городах и на ближайших метеорологических станциях:

Погода в Серанге (Индонезия) (155 км)
Погода в Аэропорту Сукарно-Хатта (Индонезия) (198 км)
Погода в Чуруге (Индонезия) (206 км)
Погода в Джакарта порту (Индонезия) (218 км)
Погода в Джакарте (Индонезия) (219 км)
Погода в Палембанге (Индонезия) (250 км)
Погода в Цитеко (Индонезия) (263 км)
Погода в Бандунге (Индонезия) (333 км)
Погода в Панкалпинанге (Индонезия) (343 км)
Погода в Бенкулу (Индонезия) (344 км)

Пояснения к столбцам:

Ветер - указаны скорость ветра в м/с - средняя за 10 мин, порывы в срок и между сроками (в фигурных скобках) и направление, откуда дует ветер: С - северный, СВ - северо-восточный, В - восточный, ЮВ - юго-восточный, Ю - южный, ЮЗ - юго-западный, З - западный, СЗ - северо-западный.
Видимость - горизонтальная дальность видимости в метрах или километрах. При видимости от 1 до 10 км при отсутствии осадков обычно наблюдается дымка, при ухудшении видимости до 1 км и менее - туман. В сухую погоду видимость может ухудшаться дымом, пылью или мглою.
Явления - указаны атмосферные явления, наблюдавшиеся в срок или в последний час перед сроком; фигурными скобками обозначены явления, наблюдавшиеся между сроками (за 1-3 часа до срока); квадратными скобками обозначены град или гололедные отложения с указанием их диаметра в мм.
Облачность - указаны через наклонную черту общая и нижняя облачность в баллах и высота нижней границы облаков в метрах; квадратными скобками обозначены формы облаков: Ci - перистые, Cs - перисто-слоистые, Cc - перисто-кучевые, Ac - высококучевые, As - высокослоистые, Sc - слоисто-кучевые, Ns - слоисто-дождевые, Cu - кучевые, Cb - кучево-дождевые. Подробнее классификацию облаков см. в Атласе облаков (PDF).
T - Температура воздуха - температура, измеренная на высоте 2 м над землей.
Td - Температура точки росы - температура, при понижении до которой содержащийся в воздухе водяной пар достигнет насыщения.
f - Относительная влажность воздуха - влажноcть воздуха, измеренная на высоте 2 м над землей.
Te - Эффективная температура - температура, которую ощущает одетый по сезону человек в тени. Характеристика душности погоды. При расчете учитывается влияние влажности воздуха и скорости ветра на теплоощущения человека.
Tes - Эффективная температура на солнце - температура, которую ощущает человек, с поправкой на солнечный нагрев. Характеристика знойности погоды. Зависит от высоты солнца над горизонтом, облачности и скорости ветра. Ночью, в пасмурную погоду, а также при ветре 12 м/с и более поправка равна нулю.
P - Атмосферное давление - приведенное к уровню моря атмосферное давление.
Po - Атмосферное давление - измеренное на уровне метеостанции атмосферное давление.
Tmin - Минимальная температура - минимум температуры воздуха на высоте 2 м над землей.
Tmax - Максимальная температура - максимум температуры воздуха на высоте 2 м над землей.
R - Количество осадков - Количество выпавших осадков за период времени, мм. При наведении курсора мыши на число - период времени, за который выпало указанное количество осадков.
R24 - Количество осадков - Количество выпавших осадков за 24 часа, мм.
S - Снежный покров - Высота снежного покрова, см. При наведении курсора мыши на число - состояние снежного покрова и степень покрытия местности в баллах.